{"data":{"norad_id":44322,"epoch":"2026-05-25T06:34:54.611616Z","epoch_age_seconds":48380,"freshness":"FRESH","line1":"1 44322U 19033A   26145.27424319 -.00000043  00000+0  12602-5 0  9994","line2":"2 44322  97.7608 153.0421 0001449  90.2304 269.9081 14.92588346378661","mean_motion":14.92588346,"eccentricity":0.0001449,"inclination_deg":97.7608,"raan_deg":153.0421,"arg_perigee_deg":90.2304,"mean_anomaly_deg":269.9081,"bstar":1.2602e-6,"rev_number":37866,"period_min":96.476701285995,"perigee_km":588.85871219471,"apogee_km":590.87804015273,"semimajor_km":6968.0053761737,"source":"CELESTRAK","updated_at":"2026-05-25T13:37:55.966690Z"}}